FW6569 Weather Reports


time (UTC)temp
F
wind
direction
speed
knots
gust
knots
rain 1hr
in
rain 24hr
in
rain mn
in
humidity
%
barometer
mb
20260504180543 66 219 6.1 7.8 0.00 0.00 0.00 67 1009.7
20260504175523 67 223 4.3 8.7 0.00 0.00 0.00 67 1009.5
20260504174522 68 212 7.8 9.6 0.00 0.00 0.00 63 1009.2
20260504173523 68 224 8.7 10.4 0.00 0.00 0.00 62 1009.4
20260504172523 68 204 10.4 13.0 0.00 0.00 0.00 62 1009.3
20260504171523 68 210 8.7 13.0 0.00 0.00 0.00 64 1009.3
20260504170523 68 202 10.4 13.0 0.00 0.00 0.00 63 1009.2
20260504150523 63 210 7.8 9.6 0.00 0.00 0.00 68 1009.7
20260504140523 62 213 6.1 7.8 0.00 0.00 0.00 68 1009.9
20260504130523 58 175 4.3 6.1 0.00 0.00 0.00 73 1009.8
20260504110524 54 185 5.2 7.0 0.00 0.00 0.00 73 1010.1
20260504100523 55 196 7.0 11.3 0.00 0.00 0.00 66 1009.9
20260504081544 53 190 4.3 5.2 0.00 0.00 0.00 67 1010.8
20260504080524 53 189 4.3 5.2 0.00 0.00 0.00 66 1010.8
20260504050524 55 194 5.2 7.0 0.00 0.00 0.00 61 1012.7
20260504045524 55 188 5.2 7.0 0.00 0.00 0.00 61 1012.7
20260504044545 55 192 4.3 7.0 0.00 0.00 0.00 61 1012.7
20260504043524 55 188 5.2 6.1 0.00 0.00 0.00 60 1012.7
20260504042524 55 183 5.2 7.8 0.00 0.00 0.00 60 1012.6
20260504041525 55 193 5.2 6.1 0.00 0.00 0.00 60 1012.8
20260504040524 55 192 6.1 7.8 0.00 0.00 0.00 60 1012.9
20260504035545 55 198 5.2 7.0 0.00 0.00 0.00 60 1013.1
20260504034524 55 193 4.3 6.1 0.00 0.00 0.00 60 1013.2
20260504033524 55 183 5.2 7.0 0.00 0.00 0.00 59 1013.2
20260504032545 55 191 5.2 7.0 0.00 0.00 0.00 60 1013.3
20260504031544 55 193 4.3 6.1 0.00 0.00 0.00 60 1013.3
20260504030525 56 190 4.3 6.1 0.00 0.00 0.00 59 1013.4
20260504025525 56 203 4.3 6.1 0.00 0.00 0.00 58 1013.4
20260504024525 56 192 4.3 6.1 0.00 0.00 0.00 58 1013.4
20260504023525 57 194 5.2 7.0 0.00 0.00 0.00 57 1013.4
20260504022524 57 206 6.1 7.8 0.00 0.00 0.00 56 1013.4
20260504021524 57 203 5.2 7.0 0.00 0.00 0.00 57 1013.4
20260504020525 57 201 6.1 7.0 0.00 0.00 0.00 56 1013.3
20260504015524 57 196 6.1 10.4 0.00 0.00 0.00 56 1013.1
20260504014525 57 206 6.1 7.8 0.00 0.00 0.00 57 1013.1
20260504013605 57 213 6.1 8.7 0.00 0.00 0.00 57 1013.0
20260504012525 56 207 6.1 8.7 0.00 0.00 0.00 59 1013.0
20260504011525 57 197 6.1 9.6 0.00 0.00 0.00 59 1012.9
20260504010525 56 197 6.1 7.8 0.00 0.00 0.00 59 1013.1
20260504005525 55 193 5.2 7.0 0.00 0.00 0.00 61 1013.1
20260504004525 55 197 4.3 7.0 0.00 0.00 0.00 63 1012.9
20260504003525 54 194 6.1 7.8 0.00 0.00 0.00 66 1012.7
20260504002545 55 186 5.2 7.0 0.00 0.00 0.00 66 1013.0
20260504001525 56 204 6.1 9.6 0.00 0.00 0.00 60 1013.3
20260504000525 56 209 7.8 9.6 0.00 0.00 0.00 61 1013.7
20260503235525 56 191 6.1 9.6 0.00 0.00 0.00 58 1013.3
20260503234525 57 201 6.1 7.8 0.00 0.00 0.00 55 1013.2
20260503233525 58 200 5.2 6.1 0.00 0.00 0.00 53 1013.5
20260503232525 59 178 5.2 7.0 0.00 0.00 0.00 49 1013.4
20260503231545 59 188 6.1 7.8 0.00 0.00 0.00 48 1013.5
20260503230525 59 183 7.0 9.6 0.00 0.00 0.00 47 1013.4
20260503225525 60 202 7.8 11.3 0.00 0.00 0.00 46 1013.4
20260503224525 60 199 9.6 15.6 0.00 0.00 0.00 45 1013.6
20260503223545 60 209 9.6 14.8 0.00 0.00 0.00 44 1013.9
20260503222525 61 200 7.0 7.8 0.00 0.00 0.00 44 1013.8
20260503221525 61 202 8.7 11.3 0.00 0.00 0.00 43 1013.8
20260503220525 61 207 11.3 14.8 0.00 0.00 0.00 42 1014.1
20260503215525 61 213 7.0 9.6 0.00 0.00 0.00 42 1014.2
20260503214525 61 205 8.7 12.2 0.00 0.00 0.00 42 1014.4
20260503213525 61 209 9.6 14.8 0.00 0.00 0.00 40 1014.7
20260503212525 62 198 9.6 13.9 0.00 0.00 0.00 39 1015.0
20260503211525 63 210 8.7 12.2 0.00 0.00 0.00 39 1015.2
20260503210525 64 217 8.7 12.2 0.00 0.00 0.00 39 1015.3
20260503205545 63 216 10.4 14.8 0.00 0.00 0.00 38 1015.4
20260503204525 62 203 9.6 12.2 0.00 0.00 0.00 38 1015.5
20260503203526 64 190 8.7 13.0 0.00 0.00 0.00 38 1015.5
20260503202525 63 218 8.7 14.8 0.00 0.00 0.00 38 1015.7
20260503201525 63 216 8.7 12.2 0.00 0.00 0.00 38 1016.0
20260503200526 63 218 7.8 13.0 0.00 0.00 0.00 37 1016.0
20260503195545 63 200 11.3 17.4 0.00 0.00 0.00 37 1016.0
20260503194525 63 198 9.6 11.3 0.00 0.00 0.00 36 1016.1
20260503193525 63 205 7.8 13.9 0.00 0.00 0.00 37 1016.4
20260503192546 62 197 10.4 14.8 0.00 0.00 0.00 38 1016.5
20260503191546 62 213 11.3 15.6 0.00 0.00 0.00 38 1016.7
20260503190545 60 215 9.6 13.9 0.00 0.00 0.00 38 1017.1
20260503185525 62 215 11.3 14.8 0.00 0.00 0.00 37 1017.2
20260503184526 62 203 10.4 18.2 0.00 0.00 0.00 39 1017.6
20260503183525 62 239 7.0 10.4 0.00 0.00 0.00 37 1017.8
20260503182526 61 218 11.3 15.6 0.00 0.00 0.00 38 1017.9
20260503181526 61 208 7.8 11.3 0.00 0.00 0.00 39 1018.1